Time,TemperatureF,DewpointF,PressureIn,WindDirection,WindDirectionDegrees,WindSpeedMPH,WindSpeedGustMPH,Humidity,HourlyPrecipIn,Conditions,Clouds,dailyrainin,SoftwareType,DateUTC
2013-04-14 00:03:00,41.0,38.0,30.20,West,278,0.0,0.0,90,0.00,,,0.09,,2013-04-14 04:03:00,
2013-04-14 00:13:00,41.0,38.0,30.20,West,278,0.0,0.0,90,0.00,,,0.09,,2013-04-14 04:13:00,
2013-04-14 00:23:00,41.0,39.0,30.20,West,277,0.0,0.0,91,0.00,,,0.09,,2013-04-14 04:23:00,
2013-04-14 00:33:00,41.0,39.0,30.21,West,277,0.0,0.0,92,0.00,,,0.09,,2013-04-14 04:33:00,
2013-04-14 00:43:00,41.0,39.0,30.21,West,277,0.0,0.0,92,0.00,,,0.09,,2013-04-14 04:43:00,
2013-04-14 00:52:00,41.0,39.0,30.22,West,277,0.0,0.0,91,0.00,,,0.09,,2013-04-14 04:52:00,
2013-04-14 01:03:00,41.0,39.0,30.21,West,279,0.0,1.0,91,0.00,,,0.09,,2013-04-14 05:03:00,
2013-04-14 01:12:00,41.0,39.0,30.21,West,279,0.0,1.0,91,0.00,,,0.09,,2013-04-14 05:12:00,
2013-04-14 01:22:00,42.0,40.0,30.20,West,279,0.0,0.0,91,0.00,,,0.08,,2013-04-14 05:22:00,
2013-04-14 01:32:00,41.0,39.0,30.20,West,280,0.0,0.0,91,0.00,,,0.08,,2013-04-14 05:32:00,
2013-04-14 01:42:00,41.0,39.0,30.20,West,280,0.0,0.0,91,0.00,,,0.08,,2013-04-14 05:42:00,
2013-04-14 01:52:00,41.0,39.0,30.20,West,280,0.0,0.0,92,0.00,,,0.08,,2013-04-14 05:52:00,
2013-04-14 02:02:00,41.0,39.0,30.20,West,280,0.0,0.0,92,0.00,,,0.08,,2013-04-14 06:02:00,
2013-04-14 02:12:00,41.0,39.0,30.20,West,280,0.0,0.0,92,0.00,,,0.08,,2013-04-14 06:12:00,
2013-04-14 02:22:00,41.0,39.0,30.20,West,280,0.0,0.0,92,0.00,,,0.08,,2013-04-14 06:22:00,
2013-04-14 02:32:00,41.0,39.0,30.19,West,280,0.0,0.0,92,0.00,,,0.08,,2013-04-14 06:32:00,
2013-04-14 02:42:00,41.0,39.0,30.19,West,280,0.0,0.0,92,0.00,,,0.08,,2013-04-14 06:42:00,
2013-04-14 02:53:00,41.0,39.0,30.19,West,280,0.0,0.0,93,0.00,,,0.08,,2013-04-14 06:53:00,
2013-04-14 03:02:00,40.0,38.0,30.19,West,279,0.0,0.0,93,0.00,,,0.08,,2013-04-14 07:02:00,
2013-04-14 03:12:00,40.0,38.0,30.19,West,279,0.0,0.0,93,0.00,,,0.08,,2013-04-14 07:12:00,
2013-04-14 03:22:00,40.0,38.0,30.19,West,279,0.0,0.0,94,0.00,,,0.07,,2013-04-14 07:22:00,
2013-04-14 03:32:00,40.0,38.0,30.20,West,280,0.0,0.0,94,0.00,,,0.04,,2013-04-14 07:32:00,
2013-04-14 03:42:00,40.0,38.0,30.20,West,280,0.0,0.0,94,0.00,,,0.04,,2013-04-14 07:42:00,
2013-04-14 03:52:00,40.0,39.0,30.19,West,280,0.0,1.0,95,0.00,,,0.02,,2013-04-14 07:52:00,
2013-04-14 04:03:00,39.0,38.0,30.19,West,280,0.0,0.0,95,0.00,,,0.02,,2013-04-14 08:03:00,
2013-04-14 04:12:00,39.0,38.0,30.19,West,280,0.0,0.0,95,0.00,,,0.02,,2013-04-14 08:12:00,
2013-04-14 04:23:00,39.0,38.0,30.19,West,279,0.0,0.0,95,0.00,,,0.02,,2013-04-14 08:23:00,
2013-04-14 04:32:00,39.0,38.0,30.19,West,279,0.0,0.0,95,0.00,,,0.02,,2013-04-14 08:32:00,
2013-04-14 04:42:00,39.0,38.0,30.19,West,279,0.0,0.0,95,0.00,,,0.02,,2013-04-14 08:42:00,
2013-04-14 04:52:00,39.0,38.0,30.21,West,280,0.0,0.0,96,0.00,,,0.01,,2013-04-14 08:52:00,
2013-04-14 05:03:00,39.0,38.0,30.21,West,279,0.0,0.0,96,0.00,,,0.01,,2013-04-14 09:03:00,
2013-04-14 05:12:00,39.0,38.0,30.21,West,279,0.0,0.0,96,0.00,,,0.01,,2013-04-14 09:12:00,
2013-04-14 05:22:00,39.0,38.0,30.22,West,279,0.0,0.0,96,0.00,,,0.01,,2013-04-14 09:22:00,
2013-04-14 05:33:00,39.0,38.0,30.21,West,281,0.0,1.0,96,0.00,,,0.01,,2013-04-14 09:33:00,
2013-04-14 05:43:00,39.0,38.0,30.21,West,281,0.0,1.0,96,0.00,,,0.01,,2013-04-14 09:43:00,
2013-04-14 05:54:00,39.0,38.0,30.21,West,281,0.0,0.0,96,0.00,,,0.01,,2013-04-14 09:54:00,
2013-04-14 06:03:00,39.0,38.0,30.21,West,281,0.0,0.0,96,0.00,,,0.01,,2013-04-14 10:03:00,
2013-04-14 06:12:00,39.0,38.0,30.21,West,281,0.0,0.0,96,0.00,,,0.01,,2013-04-14 10:12:00,
2013-04-14 06:23:00,39.0,38.0,30.22,West,281,0.0,0.0,96,0.00,,,0.01,,2013-04-14 10:23:00,
2013-04-14 06:33:00,39.0,38.0,30.22,West,281,0.0,0.0,96,0.00,,,0.01,,2013-04-14 10:33:00,
2013-04-14 06:42:00,39.0,38.0,30.22,West,281,0.0,0.0,96,0.00,,,0.01,,2013-04-14 10:42:00,
2013-04-14 06:52:00,40.0,39.0,30.23,West,281,0.0,0.0,96,0.00,,,0.01,,2013-04-14 10:52:00,
2013-04-14 07:02:00,40.0,39.0,30.23,West,281,0.0,0.0,96,0.00,,,0.01,,2013-04-14 11:02:00,
2013-04-14 07:13:00,40.0,39.0,30.23,West,281,0.0,0.0,96,0.00,,,0.01,,2013-04-14 11:13:00,
2013-04-14 07:23:00,41.0,40.0,30.23,West,281,0.0,0.0,96,0.00,,,0.01,,2013-04-14 11:23:00,
2013-04-14 07:32:00,41.0,40.0,30.23,West,281,0.0,0.0,96,0.00,,,0.01,,2013-04-14 11:32:00,
2013-04-14 07:42:00,41.0,40.0,30.23,West,281,0.0,0.0,96,0.00,,,0.01,,2013-04-14 11:42:00,
2013-04-14 07:53:00,42.0,40.0,30.24,West,281,0.0,0.0,91,0.00,,,0.01,,2013-04-14 11:53:00,
2013-04-14 08:02:00,42.0,39.0,30.24,West,281,0.0,0.0,90,0.00,,,0.00,,2013-04-14 12:02:00,
2013-04-14 08:12:00,42.0,39.0,30.24,West,281,0.0,0.0,90,0.00,,,0.00,,2013-04-14 12:12:00,
2013-04-14 08:22:00,43.0,38.0,30.24,SW,235,0.0,1.0,84,0.00,,,0.00,,2013-04-14 12:22:00,
2013-04-14 08:32:00,44.0,39.0,30.24,SW,235,0.0,1.0,83,0.00,,,0.00,,2013-04-14 12:32:00,
2013-04-14 08:42:00,44.0,39.0,30.24,SW,235,0.0,1.0,83,0.00,,,0.00,,2013-04-14 12:42:00,
2013-04-14 08:52:00,47.0,39.0,30.23,WSW,243,1.0,3.0,74,0.00,,,0.00,,2013-04-14 12:52:00,
2013-04-14 09:02:00,47.0,38.0,30.23,West,273,1.0,3.0,72,0.00,,,0.00,,2013-04-14 13:02:00,
2013-04-14 09:12:00,47.0,38.0,30.23,West,273,1.0,3.0,72,0.00,,,0.00,,2013-04-14 13:12:00,
2013-04-14 09:22:00,48.0,38.0,30.23,WSW,253,2.0,3.0,67,0.00,,,0.00,,2013-04-14 13:22:00,
2013-04-14 09:33:00,48.0,37.0,30.24,West,266,2.0,3.0,66,0.00,,,0.00,,2013-04-14 13:33:00,
2013-04-14 09:42:00,48.0,37.0,30.24,West,266,2.0,3.0,66,0.00,,,0.00,,2013-04-14 13:42:00,
2013-04-14 09:52:00,48.0,36.0,30.24,West,266,1.0,3.0,64,0.00,,,0.00,,2013-04-14 13:52:00,
2013-04-14 10:02:00,47.0,35.0,30.24,West,260,2.0,3.0,64,0.00,,,0.00,,2013-04-14 14:02:00,
2013-04-14 10:12:00,47.0,35.0,30.24,West,260,2.0,3.0,64,0.00,,,0.00,,2013-04-14 14:12:00,
2013-04-14 10:22:00,47.0,35.0,30.24,West,274,2.0,3.0,62,0.00,,,0.00,,2013-04-14 14:22:00,
2013-04-14 10:32:00,46.0,35.0,30.24,West,281,1.0,3.0,66,0.00,,,0.00,,2013-04-14 14:32:00,
2013-04-14 10:42:00,46.0,35.0,30.24,West,281,1.0,3.0,66,0.00,,,0.00,,2013-04-14 14:42:00,
2013-04-14 10:53:00,47.0,35.0,30.25,West,278,2.0,3.0,63,0.00,,,0.00,,2013-04-14 14:53:00,
2013-04-14 11:02:00,47.0,35.0,30.25,WSW,253,2.0,5.0,63,0.00,,,0.00,,2013-04-14 15:02:00,
2013-04-14 11:12:00,47.0,35.0,30.25,WSW,253,2.0,5.0,63,0.00,,,0.00,,2013-04-14 15:12:00,
2013-04-14 11:22:00,50.0,34.0,30.25,WSW,249,2.0,3.0,55,0.00,,,0.00,,2013-04-14 15:22:00,
2013-04-14 11:33:00,51.0,34.0,30.24,West,274,1.0,3.0,53,0.00,,,0.00,,2013-04-14 15:33:00,
2013-04-14 11:43:00,51.0,34.0,30.24,West,274,1.0,3.0,53,0.00,,,0.00,,2013-04-14 15:43:00,
2013-04-14 11:53:00,51.0,34.0,30.24,West,273,1.0,3.0,51,0.00,,,0.00,,2013-04-14 15:53:00,
2013-04-14 12:04:00,51.0,34.0,30.24,SW,232,1.0,3.0,53,0.00,,,0.00,,2013-04-14 16:04:00,
2013-04-14 12:13:00,51.0,34.0,30.24,SW,232,1.0,3.0,53,0.00,,,0.00,,2013-04-14 16:13:00,
2013-04-14 12:23:00,50.0,34.0,30.24,WNW,284,1.0,3.0,53,0.00,,,0.00,,2013-04-14 16:23:00,
2013-04-14 12:33:00,51.0,34.0,30.24,WNW,288,2.0,6.0,51,0.00,,,0.00,,2013-04-14 16:33:00,
2013-04-14 12:43:00,51.0,34.0,30.24,WNW,288,2.0,6.0,51,0.00,,,0.00,,2013-04-14 16:43:00,
2013-04-14 12:53:00,50.0,32.0,30.24,SE,132,2.0,7.0,50,0.00,,,0.00,,2013-04-14 16:53:00,
2013-04-14 13:02:00,51.0,33.0,30.24,West,259,2.0,7.0,50,0.00,,,0.00,,2013-04-14 17:02:00,
2013-04-14 13:13:00,51.0,33.0,30.24,West,259,2.0,7.0,50,0.00,,,0.00,,2013-04-14 17:13:00,
2013-04-14 13:22:00,51.0,32.0,30.24,WNW,285,1.0,5.0,48,0.00,,,0.00,,2013-04-14 17:22:00,
2013-04-14 13:33:00,53.0,35.0,30.24,ENE,77,1.0,3.0,51,0.00,,,0.00,,2013-04-14 17:33:00,
2013-04-14 13:42:00,53.0,35.0,30.24,ENE,77,1.0,3.0,51,0.00,,,0.00,,2013-04-14 17:42:00,
2013-04-14 13:53:00,52.0,31.0,30.24,SW,235,2.0,6.0,45,0.00,,,0.00,,2013-04-14 17:53:00,
2013-04-14 14:02:00,54.0,32.0,30.24,WNW,291,2.0,6.0,43,0.00,,,0.00,,2013-04-14 18:02:00,
2013-04-14 14:12:00,54.0,32.0,30.24,WNW,291,2.0,6.0,43,0.00,,,0.00,,2013-04-14 18:12:00,
2013-04-14 14:22:00,52.0,32.0,30.24,WSW,254,1.0,3.0,47,0.00,,,0.00,,2013-04-14 18:22:00,
2013-04-14 14:32:00,51.0,31.0,30.24,SW,232,2.0,5.0,47,0.00,,,0.00,,2013-04-14 18:32:00,
2013-04-14 14:43:00,51.0,31.0,30.24,SW,232,2.0,5.0,47,0.00,,,0.00,,2013-04-14 18:43:00,
2013-04-14 14:54:00,52.0,32.0,30.25,WSW,242,1.0,3.0,47,0.00,,,0.00,,2013-04-14 18:54:00,
2013-04-14 15:04:00,51.0,31.0,30.25,West,259,1.0,3.0,47,0.00,,,0.00,,2013-04-14 19:04:00,
2013-04-14 15:12:00,51.0,31.0,30.25,West,259,1.0,3.0,47,0.00,,,0.00,,2013-04-14 19:12:00,
2013-04-14 15:22:00,51.0,31.0,30.26,West,269,3.0,7.0,46,0.00,,,0.00,,2013-04-14 19:22:00,
2013-04-14 15:32:00,51.0,31.0,30.26,West,270,3.0,7.0,46,0.00,,,0.00,,2013-04-14 19:32:00,
2013-04-14 15:43:00,51.0,31.0,30.26,West,270,3.0,7.0,46,0.00,,,0.00,,2013-04-14 19:43:00,
2013-04-14 15:53:00,50.0,31.0,30.26,WNW,288,2.0,6.0,48,0.00,,,0.00,,2013-04-14 19:53:00,
2013-04-14 16:03:00,50.0,32.0,30.27,WSW,257,1.0,5.0,50,0.00,,,0.00,,2013-04-14 20:03:00,
2013-04-14 16:13:00,50.0,32.0,30.27,WSW,257,1.0,5.0,50,0.00,,,0.00,,2013-04-14 20:13:00,
2013-04-14 16:22:00,50.0,33.0,30.27,WNW,284,1.0,5.0,51,0.00,,,0.00,,2013-04-14 20:22:00,
2013-04-14 16:33:00,50.0,33.0,30.28,WSW,253,2.0,8.0,51,0.00,,,0.00,,2013-04-14 20:33:00,
2013-04-14 16:43:00,50.0,33.0,30.28,WSW,253,2.0,8.0,51,0.00,,,0.00,,2013-04-14 20:43:00,
2013-04-14 16:52:00,50.0,30.0,30.28,WSW,255,3.0,6.0,46,0.00,,,0.00,,2013-04-14 20:52:00,
2013-04-14 17:02:00,50.0,31.0,30.28,West,264,2.0,6.0,47,0.00,,,0.00,,2013-04-14 21:02:00,
2013-04-14 17:12:00,50.0,31.0,30.28,West,264,2.0,6.0,47,0.00,,,0.00,,2013-04-14 21:12:00,
2013-04-14 17:23:00,50.0,32.0,30.29,WNW,291,2.0,6.0,49,0.00,,,0.00,,2013-04-14 21:23:00,
2013-04-14 17:33:00,50.0,32.0,30.30,WSW,237,3.0,6.0,49,0.00,,,0.00,,2013-04-14 21:33:00,
2013-04-14 17:43:00,50.0,32.0,30.30,WSW,237,3.0,6.0,49,0.00,,,0.00,,2013-04-14 21:43:00,
2013-04-14 17:53:00,50.0,32.0,30.31,NW,314,1.0,6.0,49,0.00,,,0.00,,2013-04-14 21:53:00,
2013-04-14 18:03:00,50.0,31.0,30.32,West,274,2.0,5.0,47,0.00,,,0.00,,2013-04-14 22:03:00,
2013-04-14 18:13:00,50.0,31.0,30.32,West,274,2.0,5.0,47,0.00,,,0.00,,2013-04-14 22:13:00,
2013-04-14 18:23:00,49.0,31.0,30.33,West,259,0.0,6.0,49,0.00,,,0.00,,2013-04-14 22:23:00,
2013-04-14 18:33:00,49.0,30.0,30.33,West,279,2.0,7.0,48,0.00,,,0.00,,2013-04-14 22:33:00,
2013-04-14 18:44:00,49.0,30.0,30.33,West,279,2.0,7.0,48,0.00,,,0.00,,2013-04-14 22:44:00,
2013-04-14 18:53:00,48.0,30.0,30.34,West,281,2.0,3.0,50,0.00,,,0.00,,2013-04-14 22:53:00,
2013-04-14 19:02:00,48.0,30.0,30.34,WSW,253,1.0,3.0,49,0.00,,,0.00,,2013-04-14 23:02:00,
2013-04-14 19:12:00,48.0,30.0,30.34,WSW,253,1.0,3.0,49,0.00,,,0.00,,2013-04-14 23:12:00,
2013-04-14 19:23:00,47.0,30.0,30.34,WSW,257,1.0,3.0,51,0.00,,,0.00,,2013-04-14 23:23:00,
2013-04-14 19:33:00,47.0,30.0,30.35,West,260,0.0,3.0,51,0.00,,,0.00,,2013-04-14 23:33:00,
2013-04-14 19:43:00,47.0,30.0,30.35,West,260,0.0,3.0,51,0.00,,,0.00,,2013-04-14 23:43:00,
2013-04-14 19:53:00,45.0,31.0,30.36,ENE,58,0.0,1.0,57,0.00,,,0.00,,2013-04-14 23:53:00,
2013-04-14 20:02:00,44.0,30.0,30.37,ENE,58,0.0,1.0,58,0.00,,,0.00,,2013-04-15 00:02:00,
2013-04-14 20:12:00,44.0,30.0,30.37,ENE,58,0.0,1.0,58,0.00,,,0.00,,2013-04-15 00:12:00,
2013-04-14 20:23:00,43.0,31.0,30.39,SW,219,0.0,1.0,62,0.00,,,0.00,,2013-04-15 00:23:00,
2013-04-14 20:42:00,42.0,32.0,30.41,SW,215,0.0,0.0,67,0.00,,,0.00,,2013-04-15 00:42:00,
2013-04-14 20:52:00,42.0,32.0,30.41,SW,215,0.0,0.0,67,0.00,,,0.00,,2013-04-15 00:52:00,
2013-04-14 21:02:00,41.0,31.0,30.42,SW,215,0.0,0.0,68,0.00,,,0.00,,2013-04-15 01:02:00,
2013-04-14 21:13:00,41.0,31.0,30.42,SW,215,0.0,0.0,68,0.00,,,0.00,,2013-04-15 01:13:00,
2013-04-14 21:23:00,41.0,32.0,30.43,WSW,250,0.0,1.0,71,0.00,,,0.00,,2013-04-15 01:23:00,
2013-04-14 21:33:00,41.0,32.0,30.44,WSW,253,0.0,1.0,71,0.00,,,0.00,,2013-04-15 01:33:00,
2013-04-14 21:42:00,41.0,32.0,30.44,WSW,253,0.0,1.0,71,0.00,,,0.00,,2013-04-15 01:42:00,
2013-04-14 21:52:00,40.0,32.0,30.45,WSW,253,0.0,0.0,72,0.00,,,0.00,,2013-04-15 01:52:00,
2013-04-14 22:03:00,40.0,32.0,30.45,WSW,252,0.0,0.0,74,0.00,,,0.00,,2013-04-15 02:03:00,
2013-04-14 22:12:00,40.0,32.0,30.45,WSW,252,0.0,0.0,74,0.00,,,0.00,,2013-04-15 02:12:00,
2013-04-14 22:22:00,40.0,32.0,30.45,WSW,253,0.0,1.0,73,0.00,,,0.00,,2013-04-15 02:22:00,
2013-04-14 22:32:00,40.0,32.0,30.45,WSW,252,0.0,1.0,74,0.00,,,0.00,,2013-04-15 02:32:00,
2013-04-14 22:42:00,40.0,32.0,30.45,WSW,252,0.0,1.0,74,0.00,,,0.00,,2013-04-15 02:42:00,
2013-04-14 22:53:00,39.0,32.0,30.46,WSW,252,0.0,0.0,75,0.00,,,0.00,,2013-04-15 02:53:00,
2013-04-14 23:03:00,39.0,32.0,30.46,WSW,252,0.0,0.0,76,0.00,,,0.00,,2013-04-15 03:03:00,
2013-04-14 23:12:00,39.0,32.0,30.46,WSW,252,0.0,0.0,76,0.00,,,0.00,,2013-04-15 03:12:00,
2013-04-14 23:22:00,38.0,32.0,30.46,WSW,252,0.0,0.0,78,0.00,,,0.00,,2013-04-15 03:22:00,
2013-04-14 23:33:00,38.0,32.0,30.46,WSW,252,0.0,0.0,79,0.00,,,0.00,,2013-04-15 03:33:00,
2013-04-14 23:43:00,38.0,32.0,30.46,WSW,252,0.0,0.0,79,0.00,,,0.00,,2013-04-15 03:43:00,
2013-04-14 23:55:00,37.0,32.0,30.47,WSW,252,0.0,0.0,82,0.00,,,0.00,,2013-04-15 03:55:00,